Weather History for Worland, WY

Change the Weather History Date:

Friday, November 1, 2013

  Actual Average Record
Temperature  
Mean Temperature 40 °F 39 °F  
Max Temperature 51 °F 53 °F 75 °F (1988)
Min Temperature 28 °F 25 °F 8 °F (1984)
Degree Days  
Heating Degree Days 25 26  
Month to date heating degree days 25 26  
Since 1 July heating degree days 858 888  
Cooling Degree Days 0 0  
Month to date cooling degree days 0 0  
Year to date cooling degree days 852 535  
Moisture  
Dew Point 27 °F    
Average Humidity 59    
Maximum Humidity 85    
Minimum Humidity 32    
Precipitation  
Precipitation 0.00 in 0.01 in 0.19 in (1973)
Month to date precipitation 0.00 0.01  
Year to date precipitation 7.62 7.00  
Sea Level Pressure  
Sea Level Pressure 30.15 in    
Wind  
Wind Speed 4 mph (SW)    
Max Wind Speed 13 mph    
Max Gust Speed 16 mph    
Visibility 10 miles    
Events      
T = Trace of Precipitation, MM = Missing Value Source: NWS Daily Summary

Daily Weather History Graph

Daily Weather History Graph

Search for Another Location

Airport:

Trip Planner

Search our weather history database for the weather conditions in past years. The results will help you decide how hot, cold, wet, or windy it might be!

Date:

Astronomy

Nov. 01, 2013 Rise Set
Actual Time 7:48 AM MDT 6:01 PM MDT
Civil Twilight 7:18 AM MDT 6:31 PM MDT
Nautical Twilight 6:44 AM MDT 7:05 PM MDT
Astronomical Twilight 6:10 AM MDT 7:39 PM MDT
Moon 5:40 AM MDT (11/1) 4:58 PM MDT (11/1)
Length of Visible Light 11h 13m
Length of Day
10h 12m
Waning Crescent, 4% of the Moon is Illuminated
Nov 1
Waning Crescent
Nov 3
New
Nov 9
First Quarter
Nov 17
Full
Nov 25
Last Quarter

Hourly Weather History & Observations

Time (MDT) Temp. Windchill Dew Point Humidity Pressure Visibility Wind Dir Wind Speed Gust Speed Precip Events Conditions
12:53 AM 39.0 °F 36.8 °F 30.0 °F 70% 29.99 in 10.0 mi NW 3.5 mph - N/A   Mostly Cloudy
1:53 AM 37.0 °F - 28.9 °F 73% 30.01 in 10.0 mi Calm Calm - N/A   Overcast
2:53 AM 37.9 °F - 28.0 °F 68% 30.01 in 10.0 mi Calm Calm - N/A   Scattered Clouds
3:53 AM 37.9 °F - 27.0 °F 65% 30.05 in 10.0 mi Calm Calm - N/A   Overcast
4:53 AM 37.0 °F - 28.0 °F 70% 30.07 in 10.0 mi Calm Calm - N/A   Overcast
5:53 AM 37.0 °F - 28.0 °F 70% 30.10 in 10.0 mi Calm Calm - N/A   Overcast
6:53 AM 36.0 °F 30.3 °F 30.0 °F 79% 30.15 in 10.0 mi SSW 6.9 mph - N/A   Overcast
7:53 AM 37.0 °F 32.4 °F 30.0 °F 76% 30.17 in 10.0 mi SSW 5.8 mph - N/A   Overcast
8:53 AM 37.9 °F 31.5 °F 30.0 °F 73% 30.21 in 9.0 mi WSW 9.2 mph - N/A   Overcast
9:53 AM 41.0 °F 36.4 °F 30.9 °F 67% 30.22 in 10.0 mi WSW 6.9 mph - N/A   Overcast
10:53 AM 44.1 °F 38.6 °F 27.0 °F 51% 30.21 in 10.0 mi NW 10.4 mph - N/A   Overcast
11:53 AM 46.0 °F 41.9 °F 26.1 °F 46% 30.22 in 10.0 mi NW 8.1 mph - N/A   Mostly Cloudy
12:53 PM 48.0 °F - 26.1 °F 42% 30.21 in 10.0 mi NW 8.1 mph - N/A   Scattered Clouds
1:53 PM 48.9 °F - 25.0 °F 39% 30.19 in 10.0 mi North 4.6 mph - N/A   Clear
2:53 PM 50.0 °F - 23.0 °F 35% 30.16 in 10.0 mi Calm Calm - N/A   Clear
3:53 PM 48.9 °F - 21.9 °F 35% 30.17 in 10.0 mi Calm Calm - N/A   Clear
4:53 PM 50.0 °F - 21.9 °F 33% 30.16 in 10.0 mi Calm Calm - N/A   Clear
5:53 PM 44.1 °F 42.5 °F 27.0 °F 51% 30.17 in 10.0 mi ESE 3.5 mph - N/A   Clear
6:53 PM 37.9 °F 32.7 °F 27.0 °F 65% 30.19 in 10.0 mi ESE 6.9 mph - N/A   Clear
7:53 PM 36.0 °F 30.3 °F 26.1 °F 67% 30.20 in 10.0 mi SE 6.9 mph - N/A   Clear
8:53 PM 34.0 °F 29.8 °F 26.1 °F 73% 30.21 in 10.0 mi NW 4.6 mph - N/A   Clear
9:53 PM 32.0 °F 26.4 °F 26.1 °F 79% 30.20 in 10.0 mi SSW 5.8 mph - N/A   Clear
10:53 PM 33.1 °F 28.7 °F 26.1 °F 75% 30.20 in 10.0 mi ESE 4.6 mph - N/A   Clear
11:53 PM 28.9 °F 23.9 °F 25.0 °F 85% 30.20 in 10.0 mi SSE 4.6 mph - N/A   Clear